CZ-3C DEB, 40207

Orbit data source: Space-Track

CZ-3C DEB, 40207 is space debris in HEO originally from a launch on Fri, 24 Feb 2012 UTC launched from the Xichang Space Center, China (XSC). Debris objects in space refer to the collection of defunct objects orbiting the Earth. Examples of debris include non-operational satellites, rocket bodies, and fragments generated from explosions, collisions, or faulty payload assembly.

Loading next visibility...
Identifier
40207, 2012-008S
Orbit
HEO
Country
Flag of CNCN / PRC
Related business
Manufacturer
CALT
Mission
Spacecraft
Bus & Motor
Unknown
Mass
Unknown
Launch date (UTC)
2012-02-24 (14 years ago)
Launch vehicle
Unknown
Launch site
Xichang Space Center, China (XSC)
Object type
Payload
Rocket body
Debris
Shape & HBR
Unknown shape, 0.3 m
Radar Cross Section
Medium (>0.1 m² and <1 m²)

Expand to show TLE details & history
Last TLE update: 3 days ago

TLE from 3 days ago
0 CZ-3C DEB
1 40207U 12008S   25304.57645667  .00001580  00000-0  89005-2 0  9992
2 40207  19.5903  33.1036 7224886 229.6440  40.8654  2.23855212 90299
Epoch: 2025-10-31T13:50Z
TLE epoch observation values (Epoch: 2025-10-31T13:50:05.856Z)
Latitude
0.0001°
Longitude
145.41865°
Altitude
15,822.502 km
Speed
4.445 km/s
True Right ascension
02h 12m 14s
True Declination
0° 00' 00"
Sunlit
Object was in full shadow at epoch
Visualization orbit readout
Latitude
Unknown
Longitude
Unknown
Altitude
Unknown
Speed
Unknown
Apparent Right ascension
Unknown
Apparent Declination
Unknown
Sunlit
N/A
Visualization observer readout
Local Sidereal Time
14:36:44
Azimuth
Unknown
Elevation
Unknown
Doppler factor
Unknown
Orbital elements
Apogee altitude
36,148.329 km
Perigee altitude
473.333 km
Semi-major axis
24,688.968 km
Eccentricity
0.72249
Inclination
19.5903°
RAAN
33.1036°
Arg. of periapsis
229.644°
True anomaly
130.30897°
Mean anomaly
40.8654°
Eccentric anomaly
81.84205°
Mean motion
0.55949 °/min
Orbital period
643.45 mins
BSTAR
0.0089005
Loading maneuver chart data...
Computing Atmospheric mass density...
Loading historical data...
Loading historical data...
Loading historical data...
Loading historical data...
Loading historical data...
Loading historical data...
Loading historical data...

Documentation

Showing up to 5 results
|